Weather History for KBVY - June, 2013

Change the Weather History Date:

Sunday, June 16, 2013

  Actual Average (KBOS) Record (KBOS)
Temperature  
Mean Temperature 63 °F 68 °F  
Max Temperature 75 °F 76 °F 96 °F (1891)
Min Temperature 51 °F 60 °F 48 °F (1965)
Degree Days  
Heating Degree Days 2 2  
Month to date heating degree days 44  
Since 1 June heating degree days 44  
Since 1 July heating degree days 5670  
Cooling Degree Days 0 5  
Month to date cooling degree days 52  
Year to date cooling degree days 82  
Since 1 June cooling degree days 52  
Growing Degree Days 13 (Base 50)    
Moisture  
Dew Point 52 °F    
Average Humidity 62    
Maximum Humidity 86    
Minimum Humidity 41    
Precipitation  
Precipitation 0.00 in 0.13 in 2.37 in (1931)
Month to date precipitation 2.23  
Year to date precipitation 20.39  
Sea Level Pressure  
Sea Level Pressure 29.82 in    
Wind  
Wind Speed 5 mph (SW)    
Max Wind Speed 13 mph    
Max Gust Speed -    
Visibility 10 miles    
Events Rain    
T = Trace of Precipitation, MM = Missing Value Source: NWS Daily Summary

Daily Weather History Graph

Daily Weather History Graph

Search for Another Location

Airport or City:

Trip Planner

Search our weather history database for the weather conditions in past years. The results will help you decide how hot, cold, wet, or windy it might be!

Date:

Astronomy

Jun. 16, 2013 Rise Set
Actual Time 5:05 AM EDT 8:23 PM EDT
Civil Twilight 4:30 AM EDT 8:58 PM EDT
Nautical Twilight 3:45 AM EDT 9:43 PM EDT
Astronomical Twilight 2:49 AM EDT 10:39 PM EDT
Moon 12:47 PM EDT (6/16) 12:18 AM EDT (6/16)
Length of Visible Light 16h 28m
Length of Day
15h 18m
Waxing Crescent, 49% of the Moon is Illuminated
Jun 16
Waxing Crescent
Jun 16
First Quarter
Jun 23
Full
Jun 30
Last Quarter
Jul 8
New

Hourly Weather History & Observations

Time (EDT) Temp. Dew Point Humidity Pressure Visibility Wind Dir Wind Speed Gust Speed Precip Events Conditions
12:53 AM 59.0 °F 46.9 °F 64% 29.91 in 10.0 mi West 4.6 mph - N/A   Clear
1:53 AM 60.1 °F 46.9 °F 62% 29.89 in 10.0 mi West 3.5 mph - N/A   Clear
2:53 AM 55.9 °F 46.9 °F 72% 29.91 in 10.0 mi SW 5.8 mph - N/A   Clear
3:53 AM 55.9 °F 46.9 °F 72% 29.90 in 10.0 mi WSW 4.6 mph - N/A   Clear
4:53 AM 51.1 °F 46.9 °F 86% 29.90 in 10.0 mi Calm Calm - N/A   Clear
5:53 AM 54.0 °F 48.0 °F 80% 29.91 in 10.0 mi WSW 3.5 mph - N/A   Clear
6:53 AM 60.1 °F 52.0 °F 75% 29.90 in 10.0 mi Calm Calm - N/A   Clear
7:53 AM 63.0 °F 50.0 °F 63% 29.91 in 10.0 mi West 4.6 mph - N/A   Clear
8:53 AM 68.0 °F 52.0 °F 56% 29.90 in 10.0 mi West 3.5 mph - N/A   Clear
9:53 AM 72.0 °F 48.9 °F 44% 29.89 in 10.0 mi West 5.8 mph - N/A   Clear
10:53 AM 73.0 °F 48.9 °F 42% 29.87 in 10.0 mi SSW 9.2 mph - N/A   Clear
11:53 AM 75.0 °F 50.0 °F 41% 29.85 in 10.0 mi WSW 10.4 mph - N/A   Clear
12:53 PM 73.0 °F 50.0 °F 44% 29.84 in 10.0 mi WSW 10.4 mph - N/A   Scattered Clouds
1:53 PM 73.9 °F 51.1 °F 45% 29.81 in 10.0 mi SW 11.5 mph - N/A   Partly Cloudy
2:53 PM 73.9 °F 53.1 °F 48% 29.79 in 10.0 mi SSW 9.2 mph - N/A   Overcast
3:53 PM 73.0 °F 54.0 °F 51% 29.75 in 10.0 mi South 12.7 mph - N/A   Overcast
4:53 PM 71.1 °F 54.0 °F 55% 29.74 in 10.0 mi South 6.9 mph - N/A   Overcast
5:53 PM 71.1 °F 54.0 °F 55% 29.73 in 10.0 mi South 4.6 mph - 0.00 in Rain Light Rain
6:53 PM 70.0 °F 55.0 °F 59% 29.70 in 10.0 mi South 6.9 mph - 0.00 in   Mostly Cloudy
7:53 PM 69.1 °F 57.0 °F 65% 29.69 in 10.0 mi South 3.5 mph - N/A   Overcast
8:53 PM 69.1 °F 59.0 °F 70% 29.70 in 10.0 mi SSW 9.2 mph - N/A   Scattered Clouds
9:53 PM 66.9 °F 60.1 °F 79% 29.72 in 10.0 mi SW 5.8 mph - N/A   Partly Cloudy
10:53 PM 68.0 °F 60.1 °F 76% 29.73 in 10.0 mi West 6.9 mph - N/A   Partly Cloudy
11:53 PM 66.0 °F 60.1 °F 81% 29.74 in 10.0 mi WSW 5.8 mph - N/A   Clear